TimeCDT,TemperatureF,Dew PointF,Humidity,Sea Level PressureIn,VisibilityMPH,Wind Direction,Wind SpeedMPH,Gust SpeedMPH,PrecipitationIn,Events,Conditions,WindDirDegrees,DateUTC
12:53 AM,64.9,64.0,97,30.25,5.0,Calm,Calm,-,N/A,,Clear,0,2013-07-15 05:53:00
1:53 AM,63.0,63.0,100,30.25,6.0,Calm,Calm,-,N/A,,Clear,0,2013-07-15 06:53:00
2:44 AM,62.6,62.6,100,30.26,2.5,Calm,Calm,-,N/A,,Clear,0,2013-07-15 07:44:00
2:53 AM,63.0,62.1,97,30.25,2.5,Calm,Calm,-,N/A,,Clear,0,2013-07-15 07:53:00
3:03 AM,62.6,62.6,100,30.26,3.0,Calm,Calm,-,N/A,,Clear,0,2013-07-15 08:03:00
3:12 AM,62.6,62.6,100,30.27,2.5,Calm,Calm,-,N/A,,Clear,0,2013-07-15 08:12:00
3:20 AM,62.6,62.6,100,30.27,4.0,NW,3.5,-,N/A,,Clear,310,2013-07-15 08:20:00
3:53 AM,63.0,63.0,100,30.26,2.5,Calm,Calm,-,N/A,,Clear,0,2013-07-15 08:53:00
4:39 AM,62.6,62.6,100,30.28,1.0,Calm,Calm,-,N/A,,Clear,0,2013-07-15 09:39:00
4:49 AM,62.6,62.6,100,30.28,3.0,Calm,Calm,-,N/A,,Clear,0,2013-07-15 09:49:00
4:53 AM,62.1,62.1,100,30.27,4.0,Calm,Calm,-,N/A,,Clear,0,2013-07-15 09:53:00
5:26 AM,62.6,62.6,100,30.28,2.5,Calm,Calm,-,N/A,,Clear,0,2013-07-15 10:26:00
5:53 AM,63.0,63.0,100,30.28,2.5,Calm,Calm,-,N/A,,Clear,0,2013-07-15 10:53:00
6:01 AM,62.6,62.6,100,30.29,3.0,Calm,Calm,-,N/A,,Clear,0,2013-07-15 11:01:00
6:53 AM,70.0,68.0,93,30.28,5.0,Calm,Calm,-,N/A,,Clear,0,2013-07-15 11:53:00
7:53 AM,75.9,68.0,76,30.29,10.0,Calm,Calm,-,N/A,,Clear,0,2013-07-15 12:53:00
8:53 AM,80.1,68.0,67,30.29,10.0,Calm,Calm,-,N/A,,Clear,0,2013-07-15 13:53:00
9:53 AM,82.0,69.1,65,30.29,10.0,Calm,Calm,-,N/A,,Clear,0,2013-07-15 14:53:00
10:53 AM,84.9,69.1,59,30.29,10.0,East,4.6,-,N/A,,Clear,80,2013-07-15 15:53:00
11:53 AM,84.9,69.1,59,30.29,10.0,ESE,6.9,-,N/A,,Clear,110,2013-07-15 16:53:00
12:53 PM,87.1,69.1,55,30.29,10.0,East,6.9,-,N/A,,Clear,90,2013-07-15 17:53:00
1:53 PM,87.1,70.0,57,30.28,10.0,ESE,6.9,-,N/A,,Clear,120,2013-07-15 18:53:00
2:53 PM,86.0,69.1,57,30.27,10.0,East,9.2,-,N/A,,Clear,90,2013-07-15 19:53:00
3:53 PM,84.9,69.1,59,30.27,10.0,East,9.2,-,N/A,,Partly Cloudy,90,2013-07-15 20:53:00
4:53 PM,84.9,70.0,61,30.25,10.0,East,5.8,-,N/A,,Clear,90,2013-07-15 21:53:00
5:53 PM,82.9,69.1,63,30.25,10.0,SE,8.1,-,N/A,,Partly Cloudy,140,2013-07-15 22:53:00
6:53 PM,81.0,70.0,69,30.24,10.0,SSE,4.6,-,N/A,,Mostly Cloudy,150,2013-07-15 23:53:00
7:53 PM,80.1,69.1,69,30.23,10.0,South,5.8,-,N/A,,Mostly Cloudy,190,2013-07-16 00:53:00
8:53 PM,78.1,69.1,74,30.24,10.0,Calm,Calm,-,N/A,,Scattered Clouds,0,2013-07-16 01:53:00
9:53 PM,73.0,69.1,87,30.25,10.0,Calm,Calm,-,N/A,,Mostly Cloudy,0,2013-07-16 02:53:00
10:53 PM,73.0,69.1,87,30.26,9.0,Calm,Calm,-,N/A,,Overcast,0,2013-07-16 03:53:00
11:53 PM,73.0,70.0,90,30.25,8.0,Calm,Calm,-,N/A,,Overcast,0,2013-07-16 04:53:00